KINEIS-1A

导读

KINEIS-1A是法国于2024年6月20日发射的卫星,KINEIS星座是Kineis公司打造的低轨物联网卫星系统,旨在为全球提供广域低功耗物联网连接服务,支持资产跟踪、环境监测、基础设施管理等多领域应用。该卫星作为KINEIS组网的组成部分,将补充星座通信覆盖能力,提升全球偏远地区物联数据传输的稳定性,助力物联网终端实现无处不在的连接,推动万物互联场景落地。

基本信息
目录编号:
60084
目录名称:
KINEIS-1A
国际标识:
2024-114F
轨道中心:
EARTH
卫星名称:
KINEIS-1A
卫星全名:
--
卫星状态:
在轨 (已飞行725 天)
发射日期:
2024-06-20 UTC
国别 :
法国 (FR)
星等 :
--
轨道信息
数据来源 国际轨道数据
星历时间: 2026-06-15T07:23:24+0800
7小时前
查看轨道信息
半长轴: 7005.455km
偏心率: 0.0005167
轨道倾角: 97.892°
近地点辐角 134.234°
升交点赤经 189.528°
平近点角 225.930°
近地点: 623.698km
远地点: 630.938km
周期: 97.256分钟
每日圈数: 14.806359
详细信息
使用方式:
暂无
2D轨道图
3D轨道图
轨道高度分析图
轨道倾角分析图
轨道综合分析图
查看轨道综合分析图